International Virtual Aviation Organisation

Russian Federation and Kazakhstan MCD

 

Карточка аэропорта UUWW

Внимание!
Информация на этой странице в стадии наполнения.
Если вы не увидели какой-то информации, или заметили неточность - пожалуйста сообщите нам!
Спасибо!
Команда RU-STAFF
Название аэропортаВнуково
Название аэропорта (англ.)Vnukovo
Превышение686 ft. (209.1 m.)
Координаты55°35.952', 37°16.386'
Высота перехода1200 m
Эшелон переходаBy ATC
Коды ответчика2101-2117
Зона ОрВДМосква РПИ (UUWV)
Данные METARUUWW 302200Z 00000MPS 9999 BKN045 05/02 Q1016 R06/000070 NOSIG
Проноз погоды (TAF)UUWW 301953Z 3021/3121 VRB01MPS 6000 FEW005 BKN012 TX08/3112Z TN04/3103Z TEMPO 3022/3106 2100 BR BKN003 BECMG 3108/3110 04005MPS BKN016
NOTAMshow/hide NOTAM
AWOS   TABLE

Информация о ВПП

ВПП Длина ВПП (м.) Покрытие Курс ВПП Частота ILS
013060Асфальтобетон13111.7
193060Асфальтобетон193111.5
063500Цементобетон58108.9
243500Цементобетон238111.1

Диспетчерские позиции

Позывной Наименование органа УВД Частота
UUWW_APPВнуково-Подход122.300
UUWW_TWRВнуково-Вышка118.300
UUWW_R_APPВнуково-Круг126.000
UUWW_GNDВнуково-Руление120.450
UUWW_GNDВнуково-Руление121.700
UUWW_DELВнуково-Деливери131.800
UUWW_DELВнуково-Деливери129.700



Спутниковое изображение